Find Starlink 34091

NORAD ID: 63808 Int'l Des: 2025-092 Owner: SPXS Country: US Constellation: starlink operational
LEOCIRCULAR

实时位置

正在加载3D地球...

关于 Starlink 34091

正在加载描述...

即将过境

Passes for default location (London). Set your location on the main map for personalized predictions.

高度历史

Loading altitude history...

两行轨道根数

1 63808U 25092E 26125.70892774 .00017769 00000-0 65328-3 0 9990
2 63808 42.9978 210.6501 0001130 246.6746 113.3987 15.27599796 57386
Epoch: May 5, 2026 • Age: 21 hours

当前状态

高度 485.3 km
速度 7.63 km/s
星下点 36.95°N, 101.03°W
发射日期 May 4, 2025
运行时间 1 years
类型 internet

技术详情

分类 Payload
质量 575.00 kg
干质量 530.00 kg
总质量 575.00 kg
长度 0.30 m
直径 4.10 m
跨度 29.00 m
形状 Box + pan
制造商 SPXS
平台类型 Starlink V2MO
阶段状态 In Orbit
所有者/国家 SPXS/US

Most Searched